| time (UTC) | temp C | wind direction | speed KPH | gust KPH | rain 1hr cm | rain 24hr cm | rain mn cm | humidity % | barometer mb |
| 20260507170022 | 17 | 209 | 1.6 | 12.9 | 0.00 | 0.05 | 0.00 | 68 | 1012.8 |
| 20260507164559 | 18 | 150 | 3.2 | 12.9 | 0.00 | 0.05 | 0.00 | 66 | 1012.8 |
| 20260507163057 | 18 | 241 | 3.2 | 11.3 | 0.00 | 0.05 | 0.00 | 63 | 1012.8 |
| 20260507161559 | 19 | 129 | 3.2 | 11.3 | 0.00 | 0.05 | 0.00 | 60 | 1012.7 |
| 20260507160015 | 18 | 178 | 1.6 | 9.7 | 0.00 | 0.05 | 0.00 | 60 | 1012.8 |
| 20260507154511 | 18 | 144 | 3.2 | 11.3 | 0.00 | 0.05 | 0.00 | 61 | 1012.6 |
| 20260507153010 | 19 | 18 | 6.4 | 14.5 | 0.00 | 0.05 | 0.00 | 59 | 1012.6 |
| 20260507151510 | 19 | 107 | 3.2 | 11.3 | 0.00 | 0.05 | 0.00 | 59 | 1012.5 |
| 20260507150012 | 18 | 194 | 1.6 | 14.5 | 0.00 | 0.05 | 0.00 | 60 | 1012.7 |
| 20260507144506 | 18 | 140 | 3.2 | 24.1 | 0.00 | 0.05 | 0.00 | 59 | 1012.8 |
| 20260507143005 | 19 | 234 | 6.4 | 17.7 | 0.00 | 0.05 | 0.00 | 57 | 1012.8 |
| 20260507141503 | 19 | 163 | 4.8 | 19.3 | 0.00 | 0.05 | 0.00 | 58 | 1013.0 |
| 20260507140002 | 19 | 327 | 4.8 | 14.5 | 0.00 | 0.05 | 0.00 | 56 | 1013.1 |
| 20260507134555 | 20 | 174 | 3.2 | 14.5 | 0.00 | 0.05 | 0.00 | 58 | 1013.2 |
| 20260507133053 | 19 | 98 | 4.8 | 14.5 | 0.00 | 0.05 | 0.00 | 57 | 1013.4 |
| 20260507131550 | 19 | 192 | 6.4 | 16.1 | 0.00 | 0.05 | 0.00 | 58 | 1013.5 |
| 20260507130052 | 18 | 173 | 6.4 | 19.3 | 0.00 | 0.05 | 0.00 | 59 | 1013.8 |
| 20260507124548 | 18 | 87 | 3.2 | 11.3 | 0.00 | 0.05 | 0.00 | 62 | 1013.7 |
| 20260507123048 | 19 | 168 | 6.4 | 17.7 | 0.00 | 0.05 | 0.00 | 63 | 1013.6 |
| 20260507121547 | 18 | 219 | 6.4 | 14.5 | 0.00 | 0.05 | 0.00 | 63 | 1013.6 |
| 20260507120014 | 20 | 127 | 3.2 | 12.9 | 0.00 | 0.05 | 0.00 | 61 | 1013.7 |
| 20260507114513 | 20 | 124 | 3.2 | 11.3 | 0.00 | 0.05 | 0.00 | 62 | 1013.7 |
| 20260507113011 | 20 | 126 | 4.8 | 12.9 | 0.00 | 0.05 | 0.00 | 61 | 1013.9 |
| 20260507111510 | 20 | 185 | 3.2 | 8.0 | 0.00 | 0.05 | 0.00 | 61 | 1014.0 |
| 20260507110012 | 20 | 130 | 4.8 | 12.9 | 0.00 | 0.05 | 0.00 | 63 | 1014.2 |
| 20260507104505 | 19 | 144 | 4.8 | 16.1 | 0.00 | 0.05 | 0.00 | 66 | 1014.2 |
| 20260507103003 | 18 | 174 | 3.2 | 17.7 | 0.00 | 0.05 | 0.00 | 69 | 1014.3 |
| 20260507101602 | 18 | 203 | 4.8 | 16.1 | 0.00 | 0.05 | 0.00 | 68 | 1014.5 |
| 20260507100052 | 18 | 211 | 3.2 | 16.1 | 0.00 | 0.05 | 0.00 | 70 | 1014.6 |
| 20260507094559 | 18 | 191 | 6.4 | 12.9 | 0.00 | 0.05 | 0.00 | 69 | 1014.7 |
| 20260507093049 | 18 | 130 | 3.2 | 11.3 | 0.00 | 0.05 | 0.00 | 71 | 1014.7 |
| 20260507091558 | 17 | 112 | 3.2 | 11.3 | 0.00 | 0.05 | 0.00 | 71 | 1014.5 |
| 20260507090106 | 17 | 119 | 3.2 | 11.3 | 0.00 | 0.05 | 0.00 | 73 | 1014.5 |
| 20260507084540 | 17 | 132 | 1.6 | 8.0 | 0.00 | 0.05 | 0.00 | 75 | 1014.6 |
| 20260507083041 | 16 | 99 | 1.6 | 9.7 | 0.00 | 0.05 | 0.00 | 77 | 1014.7 |
| 20260507081548 | 16 | 161 | 3.2 | 9.7 | 0.00 | 0.05 | 0.00 | 77 | 1014.8 |
| 20260507080031 | 16 | 159 | 1.6 | 11.3 | 0.00 | 0.05 | 0.00 | 82 | 1014.9 |
| 20260507074531 | 15 | 100 | 1.6 | 8.0 | 0.00 | 0.05 | 0.00 | 85 | 1015.0 |
| 20260507073026 | 15 | 79 | 1.6 | 8.0 | 0.00 | 0.05 | 0.00 | 86 | 1014.9 |
| 20260507071522 | 14 | 72 | 1.6 | 6.4 | 0.00 | 0.05 | 0.00 | 87 | 1014.8 |
| 20260507070015 | 13 | 123 | 0.0 | 0.0 | 0.00 | 0.05 | 0.00 | 89 | 1014.8 |
| 20260507064514 | 13 | 81 | 0.0 | 0.0 | 0.00 | 0.05 | 0.00 | 90 | 1014.7 |
| 20260507063010 | 13 | 61 | 0.0 | 0.0 | 0.00 | 0.05 | 0.00 | 92 | 1014.7 |
| 20260507061538 | 12 | 61 | 0.0 | 0.0 | 0.00 | 0.05 | 0.00 | 93 | 1014.6 |
| 20260507060037 | 11 | 60 | 0.0 | 0.0 | 0.00 | 0.05 | 0.00 | 94 | 1014.6 |
| 20260507054506 | 10 | 60 | 0.0 | 0.0 | 0.00 | 0.05 | 0.00 | 94 | 1014.4 |
| 20260507053006 | 10 | 58 | 0.0 | 0.0 | 0.00 | 0.05 | 0.00 | 95 | 1014.4 |
| 20260507051503 | 10 | 58 | 0.0 | 0.0 | 0.00 | 0.05 | 0.00 | 94 | 1014.3 |
| 20260507050006 | 9 | 57 | 0.0 | 0.0 | 0.00 | 0.05 | 0.00 | 94 | 1014.2 |
| 20260507044501 | 9 | 57 | 0.0 | 0.0 | 0.00 | 0.05 | 0.00 | 93 | 1014.1 |
| 20260507043101 | 9 | 57 | 0.0 | 0.0 | 0.00 | 0.05 | 0.00 | 94 | 1014.2 |
| 20260507041603 | 9 | 57 | 0.0 | 0.0 | 0.00 | 0.05 | 0.00 | 94 | 1014.1 |
| 20260507040023 | 9 | 58 | 0.0 | 0.0 | 0.00 | 0.05 | 0.00 | 93 | 1014.1 |
| 20260507034522 | 9 | 58 | 0.0 | 0.0 | 0.00 | 0.05 | 0.00 | 93 | 1014.1 |
| 20260507033018 | 10 | 57 | 0.0 | 0.0 | 0.00 | 0.05 | 0.00 | 93 | 1013.9 |
| 20260507031516 | 10 | 57 | 0.0 | 0.0 | 0.00 | 0.05 | 0.00 | 93 | 1014.0 |
| 20260507030014 | 10 | 58 | 0.0 | 0.0 | 0.00 | 0.05 | 0.00 | 93 | 1014.0 |
| 20260507024514 | 10 | 57 | 0.0 | 0.0 | 0.00 | 0.05 | 0.00 | 93 | 1014.1 |
| 20260507023010 | 10 | 57 | 0.0 | 0.0 | 0.00 | 0.05 | 0.00 | 93 | 1014.1 |
| 20260507021509 | 10 | 56 | 0.0 | 0.0 | 0.00 | 0.05 | 0.00 | 93 | 1014.0 |
| 20260507020008 | 10 | 56 | 0.0 | 0.0 | 0.00 | 0.08 | 0.00 | 94 | 1014.2 |
| 20260507014508 | 10 | 56 | 0.0 | 0.0 | 0.00 | 0.08 | 0.00 | 94 | 1014.1 |
| 20260507013059 | 10 | 56 | 0.0 | 0.0 | 0.00 | 0.08 | 0.00 | 94 | 1014.3 |
| 20260507011558 | 10 | 56 | 0.0 | 0.0 | 0.00 | 0.08 | 0.00 | 93 | 1014.4 |
| 20260507010027 | 11 | 56 | 0.0 | 0.0 | 0.00 | 0.08 | 0.00 | 94 | 1014.6 |
| 20260507004525 | 11 | 56 | 0.0 | 3.2 | 0.00 | 0.08 | 0.00 | 93 | 1014.6 |
| 20260507003023 | 11 | 56 | 0.0 | 1.6 | 0.00 | 0.08 | 0.00 | 94 | 1014.7 |
| 20260507001521 | 11 | 50 | 0.0 | 0.0 | 0.00 | 0.08 | 0.00 | 94 | 1014.8 |
| 20260507000025 | 11 | 50 | 0.0 | 0.0 | 0.00 | 0.08 | 0.00 | 93 | 1015.0 |
| 20260506234516 | 11 | 49 | 0.0 | 0.0 | 0.00 | 0.08 | 0.00 | 94 | 1015.0 |
| 20260506233013 | 12 | 49 | 0.0 | 0.0 | 0.00 | 0.08 | 0.00 | 93 | 1015.0 |
| 20260506231513 | 12 | 49 | 0.0 | 0.0 | 0.00 | 0.08 | 0.00 | 94 | 1015.1 |
| 20260506230010 | 12 | 49 | 0.0 | 0.0 | 0.00 | 0.08 | 0.00 | 94 | 1015.1 |
| 20260506224509 | 12 | 49 | 0.0 | 0.0 | 0.00 | 0.08 | 0.00 | 93 | 1015.1 |
| 20260506223008 | 12 | 49 | 0.0 | 0.0 | 0.00 | 0.08 | 0.00 | 93 | 1015.1 |
| 20260506221507 | 12 | 49 | 0.0 | 0.0 | 0.00 | 0.08 | 0.00 | 93 | 1015.2 |
| 20260506220057 | 12 | 49 | 0.0 | 0.0 | 0.00 | 0.08 | 0.08 | 93 | 1015.2 |
| 20260506214556 | 12 | 49 | 0.0 | 3.2 | 0.00 | 0.08 | 0.08 | 93 | 1015.1 |
| 20260506213053 | 12 | 50 | 0.0 | 4.8 | 0.00 | 0.08 | 0.08 | 93 | 1015.1 |
| 20260506211553 | 13 | 50 | 0.0 | 0.0 | 0.00 | 0.08 | 0.08 | 93 | 1015.1 |
| 20260506210020 | 13 | 49 | 1.6 | 6.4 | 0.00 | 0.08 | 0.08 | 93 | 1015.0 |
| 20260506204523 | 13 | 19 | 0.0 | 3.2 | 0.00 | 0.08 | 0.08 | 93 | 1014.9 |
| 20260506203014 | 13 | 19 | 0.0 | 1.6 | 0.00 | 0.08 | 0.08 | 93 | 1014.9 |
| 20260506201512 | 13 | 19 | 0.0 | 3.2 | 0.00 | 0.08 | 0.08 | 93 | 1014.6 |
| 20260506200010 | 13 | 18 | 0.0 | 3.2 | 0.00 | 0.08 | 0.08 | 92 | 1014.4 |
| 20260506194509 | 13 | 15 | 0.0 | 4.8 | 0.00 | 0.08 | 0.08 | 92 | 1014.2 |
| 20260506193005 | 13 | 16 | 0.0 | 4.8 | 0.00 | 0.08 | 0.08 | 92 | 1013.9 |
| 20260506191600 | 13 | 15 | 0.0 | 3.2 | 0.03 | 0.08 | 0.08 | 91 | 1013.7 |
| 20260506190048 | 13 | 320 | 0.0 | 4.8 | 0.05 | 0.10 | 0.08 | 91 | 1013.5 |
| 20260506184552 | 13 | 5 | 0.0 | 6.4 | 0.05 | 0.10 | 0.08 | 90 | 1013.4 |
| 20260506183043 | 13 | 5 | 1.6 | 6.4 | 0.05 | 0.10 | 0.08 | 89 | 1013.1 |
| 20260506181542 | 13 | 25 | 0.0 | 6.4 | 0.05 | 0.08 | 0.05 | 88 | 1013.2 |
| 20260506180040 | 13 | 33 | 4.8 | 9.7 | 0.00 | 0.46 | 0.03 | 86 | 1012.8 |
| 20260506174540 | 13 | 25 | 4.8 | 14.5 | 0.00 | 0.46 | 0.03 | 86 | 1012.7 |
| 20260506173046 | 13 | 48 | 4.8 | 11.3 | 0.00 | 0.46 | 0.03 | 84 | 1012.5 |
| 20260506171550 | 13 | 64 | 6.4 | 14.5 | 0.00 | 0.46 | 0.03 | 83 | 1012.3 |